Content
SEND FEEDBACK

Daily
Averages
Monthly
Summary
United States of America

PACIFIC GROVE, CALIFORNIA


Home > North America > United States > California
Elevation: 331 feet     Latitude: 36 36N     Longitude: 121 55W

WEATHER
 
SELECT A DAY
Number of Records: 196,340;   Date Range: 7/1/96 - 11/25/14
 
SHARE

PRINT THIS DATA

[ ← Previous Day ]
WEATHER ALMANAC - FEBRUARY 28, 2013
[ Next Day → ]
[ °C ]   °F
Weather ElementAverageHighLow
Temperature48.9 °F57.9 °F (3:54 pm)41 °F (3:54 am)
Dewpoint45.7 °F48.9 °F (1:54 pm)36 °F (1:54 am)
Humidity89.5 %100 % (6:35 am)72 % (10:54 am)
Barometer30.44 in30.49 in (8:54 am)30.39 in (4:35 am)
Wind Speed3.2 mph12.7 mph (1:54 pm)
Weather ElementAverage
Visibility5.5 mi
Wind DirectionESE (107.6 °)

Weather ElementTotal
Precipitation---
Heating Degree Days15.6 (Base 65)
Averaged from 46 records on February 28, 2013
WEATHER CONDITIONS BREAKOUT
WIND DIRECTION BREAKOUT
WEATHER BY HOUR - FEBRUARY 28, 2013
[ °C ]   °F
Local TimeTemperatureDewpointHumidityBarometerVisibilityWind DirectionWind SpeedGust SpeedPrecipitationEventsConditions
1:54 AM43.0 °F36.0 °F76 %30.42 in10.0 miEast (90°)3.5 mphClear
2:54 AM42.1 °F36.0 °F79 %30.42 in10.0 miCalmClear
3:54 AM41.0 °F37.0 °F86 %30.42 in10.0 miEast (80°)3.5 mphClear
4:27 AM42.8 °F39.2 °F87 %30.40 in10.0 miWSW (250°)3.5 mphScattered Clouds
4:35 AM46.4 °F42.8 °F87 %30.39 in9.0 miSW (230°)4.6 mphMostly Cloudy
4:54 AM48.0 °F46.0 °F93 %30.44 in6.0 miSSW (210°)3.5 mphOvercast
5:54 AM46.0 °F43.0 °F89 %30.44 in6.0 miEast (90°)5.8 mphOvercast
6:05 AM46.4 °F42.8 °F87 %30.40 in1.0 miEast (90°)5.8 mphOvercast
6:22 AM46.4 °F44.6 °F93 %30.41 in0.2 miCalmFogFog
6:35 AM44.6 °F44.6 °F100 %30.41 in0.5 miCalmFogFog
6:46 AM44.6 °F44.6 °F100 %30.41 in0.5 miCalmFogFog
6:54 AM45.0 °F44.1 °F97 %30.46 in0.8 miCalmMostly Cloudy
7:01 AM44.6 °F44.6 °F100 %30.42 in1.0 miSW (220°)3.5 mphMist
7:24 AM46.4 °F44.6 °F93 %30.43 in5.0 miSSE (160°)3.5 mphScattered Clouds
7:54 AM46.0 °F44.1 °F93 %30.48 in10.0 miEast (80°)3.5 mphClear
8:54 AM52.0 °F46.0 °F80 %30.49 in10.0 miCalmClear
9:54 AM55.0 °F46.9 °F74 %30.49 in6.0 miWNW (290°)3.5 mphHaze
10:54 AM57.0 °F48.0 °F72 %30.49 in8.0 miVariable3.5 mphClear
11:54 AM55.9 °F46.9 °F72 %30.48 in8.0 miCalmClear
1:54 PM54.0 °F48.9 °F83 %30.45 in9.0 miWNW (290°)12.7 mphScattered Clouds
2:04 PM53.6 °F48.2 °F82 %30.41 in6.0 miWest (280°)11.5 mphMostly Cloudy
2:26 PM55.4 °F48.2 °F77 %30.42 in10.0 miVariable6.9 mphScattered Clouds
2:54 PM57.0 °F48.9 °F74 %30.45 in10.0 miWest (270°)6.9 mphPartly Cloudy
3:54 PM57.9 °F48.9 °F72 %30.45 in10.0 miVariable5.8 mphClear
4:54 PM55.0 °F48.9 °F80 %30.45 in10.0 miWNW (290°)5.8 mphPartly Cloudy
5:54 PM54.0 °F48.0 °F80 %30.44 in10.0 miWest (270°)4.6 mphPartly Cloudy
6:54 PM53.1 °F48.0 °F83 %30.44 in10.0 miSW (220°)4.6 mphClear
7:54 PM51.1 °F48.0 °F89 %30.47 in10.0 miWest (260°)5.8 mphClear
8:02 PM51.8 °F48.2 °F88 %30.43 in10.0 miWest (260°)6.9 mphScattered Clouds
8:10 PM51.8 °F48.2 °F88 %30.43 in10.0 miWest (260°)8.1 mphMostly Cloudy
8:54 PM50.0 °F48.9 °F96 %30.48 in8.0 miCalmOvercast
9:30 PM50.0 °F48.2 °F94 %30.44 in1.5 miNNE (30°)3.5 mphOvercast
9:54 PM48.9 °F48.0 °F97 %30.48 in1.2 miCalmOvercast
10:06 PM48.2 °F48.2 °F100 %30.43 in0.5 miEast (90°)3.5 mphFogFog
10:24 PM48.2 °F46.4 °F93 %30.43 in0.5 miEast (80°)3.5 mphFogFog
10:32 PM48.2 °F46.4 °F93 %30.43 in0.2 miEast (80°)3.5 mphFogFog
10:43 PM48.2 °F46.4 °F93 %30.43 in0.8 miCalmMist
10:49 PM46.4 °F46.4 °F100 %30.43 in2.0 miCalmMostly Cloudy
10:54 PM46.9 °F46.9 °F100 %30.48 in9.0 miCalmMostly Cloudy
11:04 PM46.4 °F46.4 °F100 %30.43 in9.0 miWSW (250°)3.5 mphScattered Clouds
11:09 PM46.4 °F46.4 °F100 %30.43 in1.5 miSW (230°)3.5 mphScattered Clouds
11:12 PM46.4 °F46.4 °F100 %30.43 in0.8 miCalmMist
11:26 PM46.4 °F46.4 °F100 %30.43 in0.5 miCalmFogFog
11:39 PM46.4 °F46.4 °F100 %30.43 in0.2 miCalmFogFog
11:49 PM46.4 °F46.4 °F100 %30.43 in0.2 miCalmFogFog
11:54 PM46.0 °F45.0 °F96 %30.47 in0.2 miCalmFogFog
Hourly data recorded from KMRY, located miles away from Pacific Grove, California







STORIES FROM OUR PARTNERS